Montgomery, NY

1:50 PM EDT on September 24, 2017 (GMT -0400)
Orange County

Weather History for KMGJ - January, 2014

Change the Weather History Date:

Friday, January 17, 2014

  Actual Average (KSWF) Record (KSWF)
Temperature  
Mean Temperature 31 °F -  
Max Temperature 41 °F 29 °F 50 °F (1990)
Min Temperature 21 °F 14 °F -27 °F (2004)
Degree Days  
Heating Degree Days 34    
Moisture  
Dew Point 23 °F    
Average Humidity 87    
Maximum Humidity 96    
Minimum Humidity 55    
Precipitation  
Precipitation 0.00 in - - ()
Sea Level Pressure  
Sea Level Pressure 29.92 in    
Wind  
Wind Speed 1 mph (SW)    
Max Wind Speed 9 mph    
Max Gust Speed -    
Visibility 4 miles    
Events Fog    
Averages and records for this station are not official NWS values.
T = Trace of Precipitation, MM = Missing Value Source: NWS Daily Summary

Daily Weather History Graph

Daily Weather History Graph

Search for Another Location

Airport or City:

Trip Planner

Search our weather history database for the weather conditions in past years. The results will help you decide how hot, cold, wet, or windy it might be!

Date:

Astronomy

Jan. 17, 2014 Rise Set
Actual Time 7:20 AM EST 4:54 PM EST
Civil Twilight 6:49 AM EST 5:24 PM EST
Nautical Twilight 6:15 AM EST 5:58 PM EST
Astronomical Twilight 5:42 AM EST 6:32 PM EST
Moon 6:40 PM EST (1/17) 7:45 AM EST (1/17)
Length of Visible Light 10h 35m
Length of Day
9h 34m
Full, 98% of the Moon is Illuminated
Jan 17
Full
Jan 24
Last Quarter
Jan 30
New
Feb 6
First Quarter
Feb 14
Full

Hourly Weather History & Observations

Time (EST) Temp. Windchill Dew Point Humidity Pressure Visibility Wind Dir Wind Speed Gust Speed Precip Events Conditions
12:34 AM 27.0 °F - 24.1 °F 89% 29.90 in 2.5 mi Calm Calm - N/A   Clear
12:44 AM 26.1 °F - 24.1 °F 92% 29.90 in 1.8 mi Calm Calm - N/A   Clear
12:54 AM 24.1 °F - 21.9 °F 91% 29.92 in 1.5 mi Calm Calm - N/A   Clear
12:58 AM 24.1 °F - 21.9 °F 91% 29.91 in 3.0 mi Calm Calm - N/A   Clear
1:18 AM 23.0 °F - 21.0 °F 92% 29.91 in 2.5 mi Calm Calm - N/A   Partly Cloudy
1:25 AM 24.1 °F - 21.0 °F 88% 29.91 in 1.0 mi Calm Calm - N/A   Mist
1:37 AM 24.1 °F - 21.9 °F 91% 29.91 in 0.8 mi Calm Calm - N/A   Mist
1:54 AM 25.0 °F - 21.9 °F 88% 29.93 in 0.8 mi Calm Calm - N/A   Mist
1:57 AM 24.1 °F - 21.9 °F 91% 29.91 in 2.0 mi Calm Calm - N/A   Partly Cloudy
2:12 AM 24.1 °F - 21.0 °F 88% 29.91 in 1.0 mi Calm Calm - N/A   Mist
2:16 AM 24.1 °F - 21.0 °F 88% 29.91 in 0.5 mi Calm Calm - N/A Fog Light Freezing Fog
2:24 AM 23.0 °F - 21.0 °F 92% 29.91 in 1.2 mi Calm Calm - N/A   Clear
2:30 AM 23.0 °F - 21.0 °F 92% 29.91 in 0.8 mi Calm Calm - N/A   Clear
2:41 AM 23.0 °F - 19.9 °F 88% 29.91 in 1.2 mi Calm Calm - N/A   Clear
2:45 AM 23.0 °F - 19.9 °F 88% 29.91 in 3.0 mi Calm Calm - N/A   Clear
2:54 AM 24.1 °F - 21.0 °F 88% 29.92 in 6.0 mi Calm Calm - 0.00 in   Clear
3:34 AM 21.9 °F - 19.0 °F 89% 29.91 in 5.0 mi Calm Calm - 0.00 in   Partly Cloudy
3:54 AM 21.9 °F - 19.0 °F 89% 29.93 in 8.0 mi Calm Calm - 0.00 in   Scattered Clouds
4:06 AM 21.9 °F - 19.9 °F 92% 29.91 in 8.0 mi Calm Calm - N/A   Mostly Cloudy
4:18 AM 21.9 °F - 19.9 °F 92% 29.91 in 8.0 mi Calm Calm - N/A   Overcast
4:38 AM 21.9 °F 17.2 °F 19.9 °F 92% 29.91 in 1.8 mi SSW 3.5 mph - N/A   Overcast
4:41 AM 21.9 °F - 19.9 °F 92% 29.91 in 0.8 mi Calm Calm - N/A   Mist
4:54 AM 23.0 °F - 21.0 °F 92% 29.92 in 0.2 mi Calm Calm - N/A Fog Light Freezing Fog
5:15 AM 24.1 °F - 23.0 °F 96% 29.92 in 1.0 mi Calm Calm - N/A   Overcast
5:20 AM 25.0 °F - 23.0 °F 92% 29.91 in 2.0 mi Calm Calm - N/A   Overcast
5:42 AM 25.0 °F - 23.0 °F 92% 29.91 in 1.0 mi Calm Calm - N/A   Mist
5:51 AM 24.8 °F - 23.0 °F 93% 29.91 in 0.8 mi Calm Calm - N/A   Mist
5:54 AM 25.0 °F - 23.0 °F 92% 29.93 in 0.8 mi Calm Calm - N/A   Mist
6:19 AM 26.1 °F 21.9 °F 23.0 °F 88% 29.92 in 1.2 mi SSW 3.5 mph - N/A   Overcast
6:23 AM 26.1 °F - 23.0 °F 88% 29.92 in 3.0 mi Calm Calm - N/A   Overcast
6:54 AM 24.1 °F - 21.9 °F 91% 29.94 in 5.0 mi Calm Calm - N/A   Mostly Cloudy
7:15 AM 23.0 °F - 21.0 °F 92% 29.93 in 1.8 mi Calm Calm - N/A   Scattered Clouds
7:20 AM 24.1 °F - 21.9 °F 91% 29.93 in 0.8 mi Calm Calm - N/A   Mostly Cloudy
7:33 AM 24.1 °F - 21.0 °F 88% 29.93 in 1.2 mi Calm Calm - N/A   Mostly Cloudy
7:41 AM 25.0 °F 20.7 °F 21.9 °F 88% 29.92 in 0.8 mi NNE 3.5 mph - N/A   Overcast
7:48 AM 26.6 °F 22.6 °F 24.8 °F 93% 29.92 in 1.2 mi North 3.5 mph - N/A   Overcast
8:38 AM 27.0 °F - 25.0 °F 92% 29.94 in 3.0 mi Calm Calm - N/A   Overcast
8:54 AM 27.0 °F - 25.0 °F 92% 29.96 in 3.0 mi Calm Calm - N/A   Overcast
9:54 AM 28.0 °F - 26.1 °F 92% 29.96 in 6.0 mi Calm Calm - N/A   Overcast
10:54 AM 32.0 °F - 27.0 °F 82% 29.95 in 10.0 mi Calm Calm - N/A   Partly Cloudy
11:54 AM 37.0 °F 31.6 °F 27.0 °F 67% 29.93 in 10.0 mi SW 6.9 mph - N/A   Clear
12:54 PM 39.0 °F 32.8 °F 26.1 °F 60% 29.90 in 10.0 mi SSW 9.2 mph - N/A   Clear
1:54 PM 41.0 °F 35.8 °F 27.0 °F 57% 29.90 in 10.0 mi SW 8.1 mph - N/A   Mostly Cloudy
2:54 PM 41.0 °F 36.4 °F 26.1 °F 55% 29.90 in 10.0 mi SW 6.9 mph - N/A   Mostly Cloudy
3:54 PM 39.0 °F 35.7 °F 27.0 °F 62% 29.90 in 10.0 mi SW 4.6 mph - N/A   Clear
4:54 PM 36.0 °F - 27.0 °F 70% 29.91 in 10.0 mi Calm Calm - N/A   Clear
5:54 PM 32.0 °F - 26.1 °F 79% 29.92 in 10.0 mi Calm Calm - N/A   Clear
6:54 PM 28.9 °F - 25.0 °F 85% 29.93 in 10.0 mi Calm Calm - N/A   Clear
7:54 PM 28.0 °F - 25.0 °F 88% 29.93 in 10.0 mi Calm Calm - N/A   Clear
8:54 PM 28.0 °F - 25.0 °F 88% 29.93 in 10.0 mi Calm Calm - N/A   Clear
9:54 PM 26.1 °F - 24.1 °F 92% 29.93 in 8.0 mi Calm Calm - N/A   Clear
10:54 PM 27.0 °F - 25.0 °F 92% 29.91 in 8.0 mi Calm Calm - N/A   Clear
11:54 PM 26.1 °F - 24.1 °F 92% 29.88 in 6.0 mi Calm Calm - N/A   Clear